Naples, Italy

6:47 AM CET on February 13, 2016 (GMT +0100)
Capodichino Mil

Weather History for LIRN - January, 2013

Change the Weather History Date:

Tuesday, January 8, 2013

  Actual Average Record
Temperature  
Mean Temperature 49 °F -  
Max Temperature 57 °F 55 °F 64 °F (2001)
Min Temperature 41 °F 39 °F 32 °F (2002)
Degree Days  
Heating Degree Days 16    
Moisture  
Dew Point 38 °F    
Average Humidity 66    
Maximum Humidity 82    
Minimum Humidity 41    
Precipitation  
Precipitation 0.00 in 0.13 in - ()
Sea Level Pressure  
Sea Level Pressure 30.24 in    
Wind  
Wind Speed 3 mph ()    
Max Wind Speed 6 mph    
Max Gust Speed -    
Visibility 5.9 miles    
Events      
Averages and records for this station are not official NWS values.
T = Trace of Precipitation, MM = Missing Value Source: Averaged Metar Reports

Daily Weather History Graph

Daily Weather History Graph

Search for Another Location

Airport or City:

Trip Planner

Search our weather history database for the weather conditions in past years. The results will help you decide how hot, cold, wet, or windy it might be!

Date:

Astronomy

Jan. 08, 2013 Rise Set
Actual Time 7:27 AM CET 4:52 PM CET
Civil Twilight 6:56 AM CET 5:22 PM CET
Nautical Twilight 6:22 AM CET 5:57 PM CET
Astronomical Twilight 5:49 AM CET 6:30 PM CET
Moon 3:40 AM CET (1/8) 1:39 PM CET (1/8)
Length of Visible Light 10h 26m
Length of Day
9h 25m
Waning Crescent, 16% of the Moon is Illuminated
Jan 8
Waning Crescent
Jan 11
New
Jan 19
First Quarter
Jan 27
Full
Feb 3
Last Quarter

Hourly Weather History & Observations

Time (CET) Temp. Windchill Dew Point Humidity Pressure Visibility Wind Dir Wind Speed Gust Speed Precip Events Conditions
12:20 AM 46.4 °F 44.3 °F 39.2 °F 76% 30.24 in - WNW 4.6 mph - N/A   Clear
12:50 AM 44.6 °F 43.1 °F 35.6 °F 71% 30.24 in - North 3.5 mph - N/A   Clear
1:20 AM 48.2 °F - 37.4 °F 66% 30.24 in - North 5.8 mph - N/A   Clear
1:50 AM 46.4 °F - 35.6 °F 66% 30.24 in - Variable 2.3 mph - N/A   Clear
2:20 AM 42.8 °F - 35.6 °F 76% 30.24 in - Variable 2.3 mph - N/A   Clear
2:50 AM 46.4 °F 43.5 °F 37.4 °F 71% 30.24 in - North 5.8 mph - N/A   Clear
3:20 AM 44.6 °F 41.4 °F 37.4 °F 76% 30.24 in - WNW 5.8 mph - N/A   Clear
3:50 AM 44.6 °F - 37.4 °F 76% 30.24 in - Variable 2.3 mph - N/A   Clear
4:20 AM 46.4 °F 44.3 °F 35.6 °F 66% 30.24 in - North 4.6 mph - N/A   Clear
4:50 AM 46.4 °F 45.2 °F 35.6 °F 66% 30.24 in - NNW 3.5 mph - N/A   Clear
5:20 AM 44.6 °F 42.2 °F 35.6 °F 71% 30.24 in - WNW 4.6 mph - N/A   Clear
5:50 AM 44.6 °F 42.2 °F 35.6 °F 71% 30.24 in - NNW 4.6 mph - N/A   Clear
6:20 AM 42.8 °F 40.1 °F 33.8 °F 70% 30.24 in - NNW 4.6 mph - N/A   Clear
6:50 AM 42.8 °F 41.1 °F 35.6 °F 76% 30.24 in - NNW 3.5 mph - N/A   Clear
7:20 AM 42.8 °F 41.1 °F 33.8 °F 70% 30.24 in - NNW 3.5 mph - N/A   Clear
7:50 AM 41.0 °F 39.0 °F 33.8 °F 76% 30.27 in 6.2 mi NNW 3.5 mph - N/A   Partly Cloudy
8:20 AM 44.6 °F 42.2 °F 35.6 °F 71% 30.27 in - NNW 4.6 mph - N/A   Clear
8:50 AM 50.0 °F - 37.4 °F 62% 30.27 in - NW 5.8 mph - N/A   Clear
9:20 AM 50.0 °F - 35.6 °F 58% 30.27 in 6.2 mi NNW 5.8 mph - N/A   Partly Cloudy
9:50 AM 51.8 °F - 35.6 °F 54% 30.27 in - NW 4.6 mph - N/A   Clear
10:20 AM 53.6 °F - 35.6 °F 51% 30.30 in - North 4.6 mph - N/A   Clear
10:50 AM 55.4 °F - 35.6 °F 47% 30.30 in - NW 3.5 mph - N/A   Clear
11:20 AM 55.4 °F - 35.6 °F 47% 30.30 in - North 3.5 mph - N/A   Clear
11:50 AM 57.2 °F - 33.8 °F 41% 30.27 in - Variable 2.3 mph - N/A   Clear
12:20 PM 57.2 °F - 33.8 °F 41% 30.27 in 6.2 mi Variable 2.3 mph - N/A   Partly Cloudy
12:50 PM 57.2 °F - 35.6 °F 44% 30.24 in 6.2 mi Variable 2.3 mph - N/A   Partly Cloudy
1:20 PM 57.2 °F - 37.4 °F 48% 30.24 in 6.2 mi South 3.5 mph - N/A   Scattered Clouds
1:50 PM 57.2 °F - 37.4 °F 48% 30.24 in 6.2 mi South 3.5 mph - N/A   Scattered Clouds
2:20 PM 57.2 °F - 39.2 °F 51% 30.24 in 6.2 mi South 3.5 mph - N/A   Scattered Clouds
2:50 PM 57.2 °F - 39.2 °F 51% 30.24 in 6.2 mi South 3.5 mph - N/A   Scattered Clouds
3:20 PM 57.2 °F - 41.0 °F 55% 30.24 in 6.2 mi South 4.6 mph - N/A   Scattered Clouds
3:50 PM 57.2 °F - 41.0 °F 55% 30.24 in 6.2 mi South 3.5 mph - N/A   Scattered Clouds
4:20 PM 55.4 °F - 42.8 °F 63% 30.24 in 6.2 mi South 3.5 mph - N/A   Scattered Clouds
4:50 PM 55.4 °F - 42.8 °F 63% 30.24 in 6.2 mi South 2.3 mph - N/A   Scattered Clouds
5:20 PM 55.4 °F - 42.8 °F 63% 30.24 in 6.2 mi Variable 2.3 mph - N/A   Scattered Clouds
5:50 PM 55.4 °F - 44.6 °F 67% 30.24 in 6.2 mi SSW 2.3 mph - N/A   Scattered Clouds
6:20 PM 51.8 °F - 42.8 °F 71% 30.24 in 6.2 mi Calm Calm - N/A   Partly Cloudy
6:50 PM 50.0 °F - 41.0 °F 71% 30.21 in - Variable 1.2 mph - N/A   Clear
7:20 PM 50.0 °F - 42.8 °F 76% 30.21 in - Variable 1.2 mph - N/A   Clear
7:50 PM 48.2 °F - 42.8 °F 82% 30.21 in - Variable 2.3 mph - N/A   Clear
8:20 PM 48.2 °F - 42.8 °F 82% 30.21 in - Variable 2.3 mph - N/A   Clear
8:50 PM 48.2 °F - 42.8 °F 82% 30.21 in - Variable 2.3 mph - N/A   Clear
9:20 PM 50.0 °F - 41.0 °F 71% 30.21 in 5.0 mi NNE 2.3 mph - N/A   Partly Cloudy
9:50 PM 46.4 °F - 41.0 °F 81% 30.21 in 5.0 mi Variable 2.3 mph - N/A   Partly Cloudy
10:20 PM 46.4 °F - 41.0 °F 81% 30.21 in 5.0 mi NNE 2.3 mph - N/A   Partly Cloudy
10:50 PM 46.4 °F 45.2 °F 41.0 °F 81% 30.21 in 5.0 mi North 3.5 mph - N/A   Scattered Clouds
11:20 PM 48.2 °F - 42.8 °F 82% 30.21 in 5.0 mi North 3.5 mph - N/A   Scattered Clouds
11:50 PM 48.2 °F - 42.8 °F 82% 30.21 in 5.0 mi NNE 4.6 mph - N/A   Scattered Clouds